sat.trackr.live / text

‹ back to catalog

STARLINK-2033

NORAD 47650 · 2021-012AG

PAYLOAD ACTIVE UNKNOWN

§ Identity

Operator
Country
US
Launch date
2021-02-16
Launch site
AFETR
Launch vehicle
Mass (kg)
RCS (m²)

Purposes: comms

External: N2YO · Heavens-Above · Gunter

§ Orbital elements

Epoch: 2026-05-25T04:06:35.872128Z

Period
93.58 min
Inclination
53.1509°
Eccentricity
0.0005781
Mean motion
15.38865064 rev/d
Perigee alt
445.5 km
Apogee alt
453.4 km
Semi-major
6,827.6 km
B*
1.3306e-3
RAAN
51.5094°
Arg perigee
86.4895°
Mean anomaly
273.6770°
Rev number
29,203

§ Raw data

STARLINK-20331 47650U 21012AG  26145.17124852  .00051904  00000+0  13306-2 0  99992 47650  53.1509  51.5094 0005781  86.4895 273.6770 15.38865064292036

JSON: /api/v1/satellites/47650 · /tle

For live sub-satellite position, see the globe view (requires WebGL).

§ Visibility from observer

Set your observer location to see the next 7 days of passes ≥ 10°. The values pass through the URL so the page stays shareable.

No JS? Fill the form by hand. The geolocation button needs JavaScript.